Time,TemperatureF,DewpointF,PressureIn,WindDirection,WindDirectionDegrees,WindSpeedMPH,WindSpeedGustMPH,Humidity,HourlyPrecipIn,Conditions,Clouds,dailyrainin,SolarRadiationWatts/m^2,SoftwareType,DateUTC
2013-01-10 00:12:00,51.0,24.0,-100.00,SE,144,3.0,8.0,35,0.00,,,0.00,0.000000,,2013-01-10 10:12:00,
2013-01-10 00:22:00,51.0,24.0,-100.00,SE,144,3.0,8.0,35,0.00,,,0.00,0.000000,,2013-01-10 10:22:00,
2013-01-10 00:32:00,51.0,24.0,-100.00,SE,144,3.0,8.0,35,0.00,,,0.00,0.000000,,2013-01-10 10:32:00,
2013-01-10 00:42:00,51.0,24.0,-100.00,SE,144,3.0,8.0,35,0.00,,,0.00,0.000000,,2013-01-10 10:42:00,
2013-01-10 01:12:00,50.0,28.0,-100.00,NNE,21,3.0,5.0,43,0.00,,,0.00,0.000000,,2013-01-10 11:12:00,
2013-01-10 01:22:00,50.0,28.0,-100.00,NNE,21,3.0,5.0,43,0.00,,,0.00,0.000000,,2013-01-10 11:22:00,
2013-01-10 01:32:00,50.0,28.0,-100.00,NNE,21,3.0,5.0,43,0.00,,,0.00,0.000000,,2013-01-10 11:32:00,
2013-01-10 01:42:00,50.0,28.0,-100.00,NNE,21,3.0,5.0,43,0.00,,,0.00,0.000000,,2013-01-10 11:42:00,
2013-01-10 02:12:00,51.0,28.0,-100.00,ESE,103,4.0,5.0,40,0.00,,,0.00,0.000000,,2013-01-10 12:12:00,
2013-01-10 02:22:00,51.0,28.0,-100.00,ESE,103,4.0,5.0,40,0.00,,,0.00,0.000000,,2013-01-10 12:22:00,
2013-01-10 02:32:00,51.0,28.0,-100.00,ESE,103,4.0,5.0,40,0.00,,,0.00,0.000000,,2013-01-10 12:32:00,
2013-01-10 02:42:00,51.0,28.0,-100.00,ESE,103,4.0,5.0,40,0.00,,,0.00,0.000000,,2013-01-10 12:42:00,
2013-01-10 04:22:00,50.0,23.0,-100.00,ENE,66,4.0,9.0,34,-99.99,,,0.00,0.000000,,2013-01-10 14:22:00,
2013-01-10 04:32:00,50.0,23.0,-100.00,ENE,66,4.0,9.0,34,-99.99,,,0.00,0.000000,,2013-01-10 14:32:00,
2013-01-10 04:43:00,50.0,23.0,-100.00,ENE,66,4.0,9.0,34,-99.99,,,0.00,0.000000,,2013-01-10 14:43:00,
2013-01-10 05:12:00,51.0,21.0,-100.00,East,79,4.0,7.0,30,0.00,,,0.00,0.000000,,2013-01-10 15:12:00,
2013-01-10 05:22:00,51.0,21.0,-100.00,East,79,4.0,7.0,30,0.00,,,0.00,0.000000,,2013-01-10 15:22:00,
2013-01-10 05:32:00,51.0,21.0,-100.00,East,79,4.0,7.0,30,0.00,,,0.00,0.000000,,2013-01-10 15:32:00,
2013-01-10 05:43:00,51.0,21.0,-100.00,East,79,4.0,7.0,30,0.00,,,0.00,0.000000,,2013-01-10 15:43:00,
2013-01-10 06:12:00,52.0,19.0,-100.00,ESE,103,4.0,9.0,27,0.00,,,0.00,0.000000,,2013-01-10 16:12:00,
2013-01-10 06:22:00,52.0,19.0,-100.00,ESE,103,4.0,9.0,27,0.00,,,0.00,0.000000,,2013-01-10 16:22:00,
2013-01-10 06:33:00,52.0,19.0,-100.00,ESE,103,4.0,9.0,27,0.00,,,0.00,0.000000,,2013-01-10 16:33:00,
2013-01-10 06:42:00,52.0,19.0,-100.00,ESE,103,4.0,9.0,27,0.00,,,0.00,0.000000,,2013-01-10 16:42:00,
2013-01-10 07:12:00,48.0,24.0,-100.00,ESE,107,4.0,6.0,39,0.00,,,0.00,0.000000,,2013-01-10 17:12:00,
2013-01-10 07:22:00,48.0,24.0,-100.00,ESE,107,4.0,6.0,39,0.00,,,0.00,0.000000,,2013-01-10 17:22:00,
2013-01-10 07:33:00,48.0,24.0,-100.00,ESE,107,4.0,6.0,39,0.00,,,0.00,0.000000,,2013-01-10 17:33:00,
2013-01-10 07:42:00,48.0,24.0,-100.00,ESE,107,4.0,6.0,39,0.00,,,0.00,0.000000,,2013-01-10 17:42:00,
2013-01-10 08:12:00,50.0,23.0,-100.00,NE,55,3.0,7.0,34,0.00,,,0.00,9.000000,,2013-01-10 18:12:00,
2013-01-10 08:22:00,50.0,23.0,-100.00,NE,55,3.0,7.0,34,0.00,,,0.00,9.000000,,2013-01-10 18:22:00,
2013-01-10 08:33:00,50.0,23.0,-100.00,NE,55,3.0,7.0,34,0.00,,,0.00,9.000000,,2013-01-10 18:33:00,
2013-01-10 08:43:00,50.0,23.0,-100.00,NE,55,3.0,7.0,34,0.00,,,0.00,9.000000,,2013-01-10 18:43:00,
2013-01-10 09:12:00,54.0,24.0,-100.00,ESE,109,4.0,7.0,31,0.00,,,0.00,75.000000,,2013-01-10 19:12:00,
2013-01-10 09:23:00,54.0,24.0,-100.00,ESE,109,4.0,7.0,31,0.00,,,0.00,75.000000,,2013-01-10 19:23:00,
2013-01-10 09:32:00,54.0,24.0,-100.00,ESE,109,4.0,7.0,31,0.00,,,0.00,75.000000,,2013-01-10 19:32:00,
2013-01-10 09:42:00,54.0,24.0,-100.00,ESE,109,4.0,7.0,31,0.00,,,0.00,75.000000,,2013-01-10 19:42:00,
2013-01-10 10:12:00,61.0,25.0,-100.00,SSW,196,3.0,6.0,25,0.00,,,0.00,417.000000,,2013-01-10 20:12:00,
2013-01-10 10:22:00,61.0,25.0,-100.00,SSW,196,3.0,6.0,25,0.00,,,0.00,417.000000,,2013-01-10 20:22:00,
2013-01-10 10:32:00,61.0,25.0,-100.00,SSW,196,3.0,6.0,25,0.00,,,0.00,417.000000,,2013-01-10 20:32:00,
2013-01-10 10:42:00,61.0,25.0,-100.00,SSW,196,3.0,6.0,25,0.00,,,0.00,417.000000,,2013-01-10 20:42:00,
2013-01-10 11:12:00,61.0,28.0,-100.00,NW,304,5.0,9.0,28,0.00,,,0.00,598.000000,,2013-01-10 21:12:00,
2013-01-10 11:23:00,61.0,28.0,-100.00,NW,304,5.0,9.0,28,0.00,,,0.00,598.000000,,2013-01-10 21:23:00,
2013-01-10 11:33:00,61.0,28.0,-100.00,NW,304,5.0,9.0,28,0.00,,,0.00,598.000000,,2013-01-10 21:33:00,
2013-01-10 11:42:00,61.0,28.0,-100.00,NW,304,5.0,9.0,28,0.00,,,0.00,598.000000,,2013-01-10 21:42:00,
2013-01-10 12:12:00,62.0,42.0,-100.00,WNW,293,5.0,10.0,47,0.00,,,0.00,727.000000,,2013-01-10 22:12:00,
2013-01-10 12:24:00,62.0,42.0,-100.00,WNW,293,5.0,10.0,47,0.00,,,0.00,727.000000,,2013-01-10 22:24:00,
2013-01-10 12:32:00,62.0,42.0,-100.00,WNW,293,5.0,10.0,47,0.00,,,0.00,727.000000,,2013-01-10 22:32:00,
2013-01-10 12:42:00,62.0,42.0,-100.00,WNW,293,5.0,10.0,47,0.00,,,0.00,727.000000,,2013-01-10 22:42:00,
2013-01-10 13:12:00,62.0,39.0,-100.00,NE,53,8.0,14.0,42,0.00,,,0.00,793.000000,,2013-01-10 23:12:00,
2013-01-10 13:22:00,62.0,39.0,-100.00,NE,53,8.0,14.0,42,0.00,,,0.00,793.000000,,2013-01-10 23:22:00,
2013-01-10 13:32:00,62.0,39.0,-100.00,NE,53,8.0,14.0,42,0.00,,,0.00,793.000000,,2013-01-10 23:32:00,
2013-01-10 13:42:00,62.0,39.0,-100.00,NE,53,8.0,14.0,42,0.00,,,0.00,793.000000,,2013-01-10 23:42:00,
2013-01-10 14:12:00,58.0,52.0,-100.00,NW,314,5.0,14.0,80,0.00,,,0.00,772.000000,,2013-01-11 00:12:00,
2013-01-10 14:23:00,58.0,52.0,-100.00,NW,314,5.0,14.0,80,0.00,,,0.00,772.000000,,2013-01-11 00:23:00,
2013-01-10 14:32:00,58.0,52.0,-100.00,NW,314,5.0,14.0,80,0.00,,,0.00,772.000000,,2013-01-11 00:32:00,
2013-01-10 14:42:00,58.0,52.0,-100.00,NW,314,5.0,14.0,80,0.00,,,0.00,772.000000,,2013-01-11 00:42:00,
2013-01-10 15:12:00,54.0,51.0,-100.00,NW,322,4.0,10.0,90,0.00,,,0.00,306.000000,,2013-01-11 01:12:00,
2013-01-10 15:22:00,54.0,51.0,-100.00,NW,322,4.0,10.0,90,0.00,,,0.00,306.000000,,2013-01-11 01:22:00,
2013-01-10 15:33:00,54.0,51.0,-100.00,NW,322,4.0,10.0,90,0.00,,,0.00,306.000000,,2013-01-11 01:33:00,
2013-01-10 15:42:00,54.0,51.0,-100.00,NW,322,4.0,10.0,90,0.00,,,0.00,306.000000,,2013-01-11 01:42:00,
2013-01-10 16:12:00,53.0,50.0,-100.00,NW,322,4.0,10.0,89,0.00,,,0.00,171.000000,,2013-01-11 02:12:00,
2013-01-10 16:22:00,53.0,50.0,-100.00,NW,322,4.0,10.0,89,0.00,,,0.00,171.000000,,2013-01-11 02:22:00,
2013-01-10 16:32:00,53.0,50.0,-100.00,NW,322,4.0,10.0,89,0.00,,,0.00,171.000000,,2013-01-11 02:32:00,
2013-01-10 16:42:00,53.0,50.0,-100.00,NW,322,4.0,10.0,89,0.00,,,0.00,171.000000,,2013-01-11 02:42:00,
2013-01-10 17:12:00,53.0,50.0,-100.00,NW,315,5.0,9.0,88,0.00,,,0.00,204.000000,,2013-01-11 03:12:00,
2013-01-10 17:22:00,53.0,50.0,-100.00,NW,315,5.0,9.0,88,0.00,,,0.00,204.000000,,2013-01-11 03:22:00,
2013-01-10 17:33:00,53.0,50.0,-100.00,NW,315,5.0,9.0,88,0.00,,,0.00,204.000000,,2013-01-11 03:33:00,
2013-01-10 17:42:00,53.0,50.0,-100.00,NW,315,5.0,9.0,88,0.00,,,0.00,204.000000,,2013-01-11 03:42:00,
2013-01-10 18:12:00,50.0,49.0,-100.00,NNW,342,4.0,8.0,96,0.00,,,0.00,83.000000,,2013-01-11 04:12:00,
2013-01-10 18:22:00,50.0,49.0,-100.00,NNW,342,4.0,8.0,96,0.00,,,0.00,83.000000,,2013-01-11 04:22:00,
2013-01-10 18:32:00,50.0,49.0,-100.00,NNW,342,4.0,8.0,96,0.00,,,0.00,83.000000,,2013-01-11 04:32:00,
2013-01-10 18:42:00,50.0,49.0,-100.00,NNW,342,4.0,8.0,96,0.00,,,0.00,83.000000,,2013-01-11 04:42:00,
2013-01-10 19:12:00,46.0,43.0,-100.00,NE,56,2.0,5.0,89,0.00,,,0.00,2.000000,,2013-01-11 05:12:00,
2013-01-10 19:22:00,46.0,43.0,-100.00,NE,56,2.0,5.0,89,0.00,,,0.00,2.000000,,2013-01-11 05:22:00,
2013-01-10 19:33:00,46.0,43.0,-100.00,NE,56,2.0,5.0,89,0.00,,,0.00,2.000000,,2013-01-11 05:33:00,
2013-01-10 19:42:00,46.0,43.0,-100.00,NE,56,2.0,5.0,89,0.00,,,0.00,2.000000,,2013-01-11 05:42:00,
2013-01-10 20:12:00,45.0,42.0,-100.00,ENE,74,4.0,7.0,88,0.00,,,0.00,0.000000,,2013-01-11 06:12:00,
2013-01-10 20:22:00,45.0,42.0,-100.00,ENE,74,4.0,7.0,88,0.00,,,0.00,0.000000,,2013-01-11 06:22:00,
2013-01-10 20:32:00,45.0,42.0,-100.00,ENE,74,4.0,7.0,88,0.00,,,0.00,0.000000,,2013-01-11 06:32:00,
2013-01-10 20:42:00,45.0,42.0,-100.00,ENE,74,4.0,7.0,88,0.00,,,0.00,0.000000,,2013-01-11 06:42:00,
2013-01-10 21:12:00,46.0,45.0,-100.00,East,100,3.0,7.0,96,0.00,,,0.00,0.000000,,2013-01-11 07:12:00,
2013-01-10 21:22:00,46.0,45.0,-100.00,East,100,3.0,7.0,96,0.00,,,0.00,0.000000,,2013-01-11 07:22:00,
2013-01-10 21:32:00,46.0,45.0,-100.00,East,100,3.0,7.0,96,0.00,,,0.00,0.000000,,2013-01-11 07:32:00,
2013-01-10 21:42:00,46.0,45.0,-100.00,East,100,3.0,7.0,96,0.00,,,0.00,0.000000,,2013-01-11 07:42:00,
2013-01-10 22:12:00,46.0,39.0,-100.00,East,83,0.0,0.0,75,0.00,,,-99.99,0.000000,,2013-01-11 08:12:00,
2013-01-10 22:22:00,46.0,39.0,-100.00,East,83,0.0,0.0,75,0.00,,,-99.99,0.000000,,2013-01-11 08:22:00,
2013-01-10 22:32:00,46.0,39.0,-100.00,East,83,0.0,0.0,75,0.00,,,-99.99,0.000000,,2013-01-11 08:32:00,
2013-01-10 22:42:00,46.0,39.0,-100.00,East,83,0.0,0.0,75,0.00,,,-99.99,0.000000,,2013-01-11 08:42:00,
2013-01-10 23:12:00,47.0,32.0,-100.00,ESE,111,5.0,7.0,56,0.00,,,0.00,0.000000,,2013-01-11 09:12:00,
2013-01-10 23:22:00,47.0,32.0,-100.00,ESE,111,5.0,7.0,56,0.00,,,0.00,0.000000,,2013-01-11 09:22:00,
2013-01-10 23:32:00,47.0,32.0,-100.00,ESE,111,5.0,7.0,56,0.00,,,0.00,0.000000,,2013-01-11 09:32:00,
2013-01-10 23:42:00,47.0,32.0,-100.00,ESE,111,5.0,7.0,56,0.00,,,0.00,0.000000,,2013-01-11 09:42:00,